CUBESAT XI-V

Last updated on Fri Jul 11 2025 00:03:04 GMT+0000 (Coordinated Universal Time)

1 28895U 05043F 25191.33084644 .00001020 00000+0 17413-3 0 9995 2 28895 98.2534 336.0726 0013997 204.9008 155.1524 14.71093016 51465
UTC large
Height (km)
Speed (km/s)
/
Latitude / Longitude
Inclination (degrees)
Orbital Period (minutes)
Azimuth
Elevation
Range (km)
Doppler Factor

Next 0 passes for location: London (51.5072 / 0.1276)

Sorry there are no passes over London.